Tracking 22223 objects as of 26-Jan-2021
HD Live streaming from Space Station
objects crossing your sky now

STARLINK-1227

Track STARLINK-1227 now!
10-day predictions
STARLINK-1227 is classified as:


NORAD ID: 45230
Int'l Code: 2020-012BE
Perigee: 553.4 km
Apogee: 555.4 km
Inclination: 53.1 °
Period: 95.6 minutes
Semi major axis: 6925 km
RCS: Unknown
Launch date: February 17, 2020
Source: United States (US)
Launch site: AIR FORCE EASTERN TEST RANGE (AFETR)
aabbcc
Your satellite tracking list
Your tracking list is empty




NASA's NSSDC Master Catalog

Two Line Element Set (TLE):
1 45230U 20012BE  21025.63701384  .00000685  00000-0  64876-4 0  9995
2 45230  53.0583 117.1056 0001450 102.4056 257.7095 15.06396585 53707
Source of the keplerian elements: AFSPC